TimeCST,TemperatureF,Dew PointF,Humidity,Sea Level PressureIn,VisibilityMPH,Wind Direction,Wind SpeedMPH,Gust SpeedMPH,PrecipitationIn,Events,Conditions,WindDirDegrees,DateUTC
1:56 AM,21.0,10.9,65,30.31,10.0,North,10.4,-,N/A,,Partly Cloudy,350,2014-01-29 07:56:00
2:56 AM,21.0,9.0,60,30.30,10.0,North,12.7,18.4,N/A,,Clear,350,2014-01-29 08:56:00
3:56 AM,19.9,9.0,62,30.30,10.0,North,11.5,-,N/A,,Clear,360,2014-01-29 09:56:00
4:56 AM,19.9,7.0,57,30.31,10.0,North,15.0,-,N/A,,Clear,360,2014-01-29 10:56:00
5:56 AM,19.0,6.1,57,30.33,10.0,North,9.2,-,N/A,,Clear,360,2014-01-29 11:56:00
6:56 AM,18.0,5.0,57,30.36,10.0,North,9.2,-,N/A,,Clear,360,2014-01-29 12:56:00
7:56 AM,19.0,3.9,52,30.38,10.0,North,10.4,-,N/A,,Clear,10,2014-01-29 13:56:00
8:56 AM,19.9,3.9,50,30.39,10.0,North,11.5,-,N/A,,Clear,10,2014-01-29 14:56:00
9:56 AM,21.9,3.0,44,30.42,10.0,North,10.4,-,N/A,,Clear,350,2014-01-29 15:56:00
12:56 PM,25.0,3.9,41,30.35,10.0,North,10.4,-,N/A,,Clear,360,2014-01-29 18:56:00
1:56 PM,27.0,3.9,37,30.34,10.0,North,12.7,-,N/A,,Clear,10,2014-01-29 19:56:00
2:56 PM,28.9,5.0,36,30.31,10.0,North,12.7,-,N/A,,Clear,350,2014-01-29 20:56:00
3:56 PM,30.0,3.9,33,30.32,10.0,North,11.5,-,N/A,,Clear,360,2014-01-29 21:56:00
4:56 PM,28.9,3.9,35,30.30,10.0,North,6.9,-,N/A,,Clear,360,2014-01-29 22:56:00
5:56 PM,28.0,6.1,39,30.32,10.0,North,3.5,-,N/A,,Clear,360,2014-01-29 23:56:00
6:56 PM,25.0,6.1,45,30.33,10.0,Calm,Calm,-,N/A,,Clear,0,2014-01-30 00:56:00
7:56 PM,24.1,7.0,48,30.34,10.0,North,5.8,-,N/A,,Clear,350,2014-01-30 01:56:00
8:56 PM,21.9,6.1,51,30.35,10.0,North,3.5,-,N/A,,Clear,350,2014-01-30 02:56:00
9:56 PM,21.0,8.1,57,30.35,10.0,North,4.6,-,N/A,,Clear,10,2014-01-30 03:56:00
10:56 PM,19.9,8.1,60,30.34,10.0,North,4.6,-,N/A,,Clear,360,2014-01-30 04:56:00
11:56 PM,15.1,10.9,84,30.32,10.0,North,4.6,-,N/A,,Clear,360,2014-01-30 05:56:00